Retour au catalogue

COSMOS 2180

ActifMilitairePO
NORAD 21875·PAYLOAD·🇷🇺 Russia

Lancé Feb 17, 1992 depuis Plesetsk Cosmodrome

Loading…

Prochains Passages (prochaines 24 heures)

TLE

FraisSource: Space-Track

Époque: Sep 14, 2026, 03:05 UTC

1 21875U 92008A   26257.12877259  .00000064  00000-0  51425-4 0  9996
2 21875  82.9300 155.6091 0038939  83.7921  78.9095 13.73969469733037

Suivez COSMOS 2180 en temps réel avec AllMySat

Download on the App Store